Change the Weather History Date:

Friday, June 7, 2013

  Actual Average Record
Temperature  
Mean Temperature 95 °F 87 °F  
Max Temperature 112 °F 102 °F 116 °F (1985)
Min Temperature 77 °F 72 °F 54 °F (1945)
Degree Days  
Heating Degree Days 0 0  
Month to date heating degree days 0 0  
Since 1 June heating degree days 0 0  
Since 1 July heating degree days 705 686  
Cooling Degree Days 30 22  
Month to date cooling degree days 186 148  
Year to date cooling degree days 1247 1060  
Since 1 June cooling degree days 186 148  
Growing Degree Days 44 (Base 50)    
Moisture  
Dew Point 34 °F    
Average Humidity 15    
Maximum Humidity 25    
Minimum Humidity 5    
Precipitation  
Precipitation 0.00 in 0.00 in 0.01 in (1972)
Month to date precipitation 0.00 0.00  
Year to date precipitation 1.11 1.32  
Sea Level Pressure  
Sea Level Pressure 29.64 in    
Wind  
Wind Speed 6 mph (SSW)    
Max Wind Speed 13 mph    
Max Gust Speed 17 mph    
Visibility 10 miles    
Events      
T = Trace of Precipitation, MM = Missing Value Source: NWS Daily Summary

Daily Weather History Graph

Daily Weather History Graph

Search for Another Location

Airport or City:

Trip Planner

Search our weather history database for the weather conditions in past years. The results will help you decide how hot, cold, wet, or windy it might be!

Date:

Astronomy

Jun. 07, 2013 Rise Set
Actual Time 5:30 AM MST 7:44 PM MST
Civil Twilight 5:02 AM MST 8:12 PM MST
Nautical Twilight 4:27 AM MST 8:47 PM MST
Astronomical Twilight 3:49 AM MST 9:25 PM MST
Moon 4:52 AM MST (6/7) 7:05 PM MST (6/7)
Length of Visible Light 15h 10m
Length of Day
14h 14m
Waning Crescent, 1% of the Moon is Illuminated
Jun 7
Waning Crescent
Jun 8
New
Jun 16
First Quarter
Jun 23
Full
Jun 29
Last Quarter

Hourly Weather History & Observations

Time (MST) Temp. Dew Point Humidity Pressure Visibility Wind Dir Wind Speed Gust Speed Precip Events Conditions
12:57 AM 84.0 °F 44.1 °F 25% 29.67 in 10.0 mi South 4.6 mph - N/A   Clear
1:57 AM 84.0 °F 39.0 °F 20% 29.65 in 10.0 mi SW 4.6 mph - N/A   Clear
2:57 AM 82.0 °F 37.9 °F 21% 29.65 in 10.0 mi Calm Calm - N/A   Clear
3:57 AM 80.1 °F 36.0 °F 20% 29.65 in 10.0 mi SSE 4.6 mph - N/A   Clear
4:57 AM 77.0 °F 36.0 °F 23% 29.65 in 10.0 mi Calm Calm - N/A   Partly Cloudy
5:57 AM 79.0 °F 30.0 °F 17% 29.66 in 10.0 mi Calm Calm - N/A   Partly Cloudy
6:57 AM 80.1 °F 30.9 °F 17% 29.68 in 10.0 mi SSW 3.5 mph - N/A   Clear
7:57 AM 87.1 °F 37.0 °F 17% 29.69 in 10.0 mi SW 9.2 mph - N/A   Clear
8:57 AM 90.0 °F 36.0 °F 15% 29.70 in 10.0 mi SW 6.9 mph - N/A   Clear
9:57 AM 93.9 °F 34.0 °F 12% 29.70 in 10.0 mi SSW 5.8 mph - N/A   Clear
10:57 AM 98.1 °F 30.9 °F 9% 29.69 in 10.0 mi SSW 5.8 mph - N/A   Clear
11:57 AM 100.9 °F 30.9 °F 9% 29.68 in 10.0 mi South 5.8 mph - N/A   Clear
12:57 PM 105.1 °F 30.0 °F 7% 29.66 in 10.0 mi South 9.2 mph - N/A   Clear
1:57 PM 108.0 °F 25.0 °F 5% 29.64 in 10.0 mi South 8.1 mph - N/A   Clear
2:57 PM 109.9 °F 24.1 °F 5% 29.62 in 10.0 mi SSW 8.1 mph - N/A   Clear
3:57 PM 111.0 °F 25.0 °F 5% 29.59 in 10.0 mi West 6.9 mph - N/A   Clear
4:57 PM 111.0 °F 24.1 °F 5% 29.57 in 10.0 mi SW 8.1 mph - N/A   Clear
5:57 PM 109.0 °F 37.9 °F 9% 29.57 in 10.0 mi WSW 10.4 mph - N/A   Clear
6:57 PM 106.0 °F 37.0 °F 9% 29.56 in 10.0 mi WSW 8.1 mph - N/A   Clear
7:57 PM 100.9 °F 39.0 °F 12% 29.57 in 10.0 mi SW 5.8 mph - N/A   Clear
8:57 PM 96.1 °F 37.0 °F 13% 29.59 in 10.0 mi SSW 6.9 mph - N/A   Clear
9:57 PM 90.0 °F 43.0 °F 19% 29.61 in 10.0 mi SSW 4.6 mph - N/A   Clear
10:57 PM 86.0 °F 37.0 °F 18% 29.61 in 10.0 mi South 10.4 mph - N/A   Clear
11:57 PM 84.9 °F 36.0 °F 17% 29.62 in 10.0 mi Calm Calm - N/A   Clear